Time,TemperatureF,DewpointF,PressureIn,WindDirection,WindDirectionDegrees,WindSpeedMPH,WindSpeedGustMPH,Humidity,HourlyPrecipIn,Conditions,Clouds,dailyrainin,SoftwareType,DateUTC
2013-10-03 00:00:00,60.8,51.0,29.28,ESE,109,0.0,0.0,70,0.00,CLR,,0.00,WeatherDisplay:10.37,2013-10-03 05:00:00,
2013-10-03 00:10:00,61.0,51.1,29.28,ESE,109,0.0,0.0,70,0.00,CLR,,0.00,WeatherDisplay:10.37,2013-10-03 05:10:00,
2013-10-03 00:20:00,61.0,51.1,29.28,ESE,109,0.0,0.0,70,0.00,CLR,,0.00,WeatherDisplay:10.37,2013-10-03 05:20:00,
2013-10-03 00:30:00,60.9,51.1,29.27,ESE,109,0.0,0.0,70,0.00,CLR,,0.00,WeatherDisplay:10.37,2013-10-03 05:30:00,
2013-10-03 00:40:00,60.5,51.0,29.27,ESE,109,0.0,0.0,71,0.00,CLR,,0.00,WeatherDisplay:10.37,2013-10-03 05:40:00,
2013-10-03 00:50:00,60.2,51.1,29.27,ESE,109,0.0,0.0,72,0.00,CLR,,0.00,WeatherDisplay:10.37,2013-10-03 05:50:00,
2013-10-03 01:00:00,60.0,50.9,29.26,ESE,109,0.0,0.0,72,0.00,CLR,,0.00,WeatherDisplay:10.37,2013-10-03 06:00:00,
2013-10-03 01:10:00,59.9,51.2,29.27,ESE,109,0.0,0.0,73,0.00,CLR,,0.00,WeatherDisplay:10.37,2013-10-03 06:10:00,
2013-10-03 01:20:00,59.7,51.0,29.26,ESE,109,0.0,0.0,73,0.00,CLR,,0.00,WeatherDisplay:10.37,2013-10-03 06:20:00,
2013-10-03 01:30:00,59.6,50.9,29.26,ESE,109,0.0,0.0,73,0.00,CLR,,0.00,WeatherDisplay:10.37,2013-10-03 06:30:00,
2013-10-03 01:40:00,59.4,51.5,29.26,ESE,109,0.0,0.0,75,0.00,CLR,,0.00,WeatherDisplay:10.37,2013-10-03 06:40:00,
2013-10-03 01:50:00,59.4,51.1,29.26,ESE,109,0.0,0.0,74,0.00,CLR,,0.00,WeatherDisplay:10.37,2013-10-03 06:50:00,
2013-10-03 02:00:00,59.6,51.3,29.26,ESE,109,0.0,0.0,74,0.00,CLR,,0.00,WeatherDisplay:10.37,2013-10-03 07:00:00,
2013-10-03 02:10:00,59.7,51.4,29.26,ESE,109,0.0,0.0,74,0.00,CLR,,0.00,WeatherDisplay:10.37,2013-10-03 07:10:00,
2013-10-03 02:20:00,59.9,52.0,29.25,ESE,109,0.0,0.0,75,0.00,CLR,,0.00,WeatherDisplay:10.37,2013-10-03 07:20:00,
2013-10-03 02:30:00,59.9,52.0,29.25,ESE,109,0.0,0.0,75,0.00,CLR,,0.00,WeatherDisplay:10.37,2013-10-03 07:30:00,
2013-10-03 02:40:00,59.7,51.8,29.25,ESE,109,0.0,0.0,75,0.00,CLR,,0.00,WeatherDisplay:10.37,2013-10-03 07:40:00,
2013-10-03 02:50:00,59.6,51.7,29.25,ESE,109,0.0,0.0,75,0.00,CLR,,0.00,WeatherDisplay:10.37,2013-10-03 07:50:00,
2013-10-03 03:00:00,59.6,51.7,29.24,ESE,109,0.0,0.0,75,0.00,CLR,,0.00,WeatherDisplay:10.37,2013-10-03 08:00:00,
2013-10-03 03:10:00,59.4,51.8,29.24,ESE,109,0.0,0.0,76,0.00,CLR,,0.00,WeatherDisplay:10.37,2013-10-03 08:10:00,
2013-10-03 03:20:00,59.4,51.8,29.24,ESE,109,0.0,0.0,76,0.00,CLR,,0.00,WeatherDisplay:10.37,2013-10-03 08:20:00,
2013-10-03 03:30:00,59.4,51.8,29.24,ESE,109,0.0,0.0,76,0.00,CLR,,0.00,WeatherDisplay:10.37,2013-10-03 08:30:00,
2013-10-03 03:40:00,59.3,52.1,29.24,ESE,109,0.0,0.0,77,0.00,CLR,,0.00,WeatherDisplay:10.37,2013-10-03 08:40:00,
2013-10-03 03:50:00,59.3,51.7,29.24,ESE,109,0.0,0.0,76,0.00,CLR,,0.00,WeatherDisplay:10.37,2013-10-03 08:50:00,
2013-10-03 04:00:00,59.3,51.7,29.24,ESE,109,0.0,0.0,76,0.00,CLR,,0.00,WeatherDisplay:10.37,2013-10-03 09:00:00,
2013-10-03 04:10:00,59.7,53.2,29.24,ESE,109,0.0,0.0,79,0.00,CLR,,0.00,WeatherDisplay:10.37,2013-10-03 09:10:00,
2013-10-03 04:20:00,59.9,53.4,29.24,ESE,109,0.0,0.0,79,0.00,CLR,,0.00,WeatherDisplay:10.37,2013-10-03 09:20:00,
2013-10-03 04:30:00,60.0,53.8,29.24,ESE,109,0.0,0.0,80,0.00,CLR,,0.00,WeatherDisplay:10.37,2013-10-03 09:30:00,
2013-10-03 04:40:00,60.2,54.3,29.24,ESE,109,0.0,0.0,81,0.00,CLR,,0.00,WeatherDisplay:10.37,2013-10-03 09:40:00,
2013-10-03 04:50:00,60.5,54.6,29.24,ESE,109,0.0,0.0,81,0.00,CLR,,0.00,WeatherDisplay:10.37,2013-10-03 09:50:00,
2013-10-03 05:00:00,61.1,55.6,29.23,ESE,109,0.0,0.0,82,0.00,CLR,,0.00,WeatherDisplay:10.37,2013-10-03 10:00:00,
2013-10-03 05:10:00,61.7,56.2,29.23,ESE,109,0.0,0.0,82,0.00,CLR,,0.00,WeatherDisplay:10.37,2013-10-03 10:10:00,
2013-10-03 05:20:00,62.2,57.0,29.23,ESE,109,0.0,0.0,83,0.00,CLR,,0.00,WeatherDisplay:10.37,2013-10-03 10:20:00,
2013-10-03 05:30:00,62.5,57.3,29.23,ESE,109,0.0,0.0,83,0.00,CLR,,0.00,WeatherDisplay:10.37,2013-10-03 10:30:00,
2013-10-03 05:40:00,63.0,58.1,29.23,ESE,110,0.0,0.0,84,0.00,CLR,,0.00,WeatherDisplay:10.37,2013-10-03 10:40:00,
2013-10-03 05:50:00,63.8,58.9,29.23,ESE,111,0.0,0.0,84,0.00,CLR,,0.00,WeatherDisplay:10.37,2013-10-03 10:50:00,
2013-10-03 06:00:00,64.1,59.5,29.22,ESE,120,0.0,0.0,85,0.00,CLR,,0.00,WeatherDisplay:10.37,2013-10-03 11:00:00,
2013-10-03 06:10:00,64.4,60.2,29.22,ESE,120,0.0,0.0,86,0.00,CLR,,0.00,WeatherDisplay:10.37,2013-10-03 11:10:00,
2013-10-03 06:20:00,64.8,60.5,29.23,SSE,151,0.0,1.0,86,0.00,CLR,,0.00,WeatherDisplay:10.37,2013-10-03 11:20:00,
2013-10-03 06:30:00,65.1,60.8,29.24,SSE,157,0.0,0.0,86,0.00,CLR,,0.00,WeatherDisplay:10.37,2013-10-03 11:30:00,
2013-10-03 06:40:00,65.1,60.8,29.24,SSE,161,1.0,3.0,86,0.00,CLR,,0.00,WeatherDisplay:10.37,2013-10-03 11:40:00,
2013-10-03 06:50:00,65.1,61.1,29.24,South,181,0.0,3.0,87,0.00,CLR,,0.00,WeatherDisplay:10.37,2013-10-03 11:50:00,
2013-10-03 07:00:00,65.1,61.1,29.23,South,187,0.0,2.0,87,0.00,CLR,,0.00,WeatherDisplay:10.37,2013-10-03 12:00:00,
2013-10-03 07:10:00,65.3,61.3,29.24,South,187,0.0,3.0,87,0.00,CLR,,0.00,WeatherDisplay:10.37,2013-10-03 12:10:00,
2013-10-03 07:20:00,65.4,61.4,29.24,South,187,1.0,3.0,87,0.00,CLR,,0.00,WeatherDisplay:10.37,2013-10-03 12:20:00,
2013-10-03 07:30:00,65.4,61.4,29.23,SSW,193,0.0,5.0,87,0.00,CLR,,0.00,WeatherDisplay:10.37,2013-10-03 12:30:00,
2013-10-03 07:40:00,65.6,61.6,29.23,SSW,198,1.0,3.0,87,0.00,CLR,,0.00,WeatherDisplay:10.37,2013-10-03 12:40:00,
2013-10-03 07:50:00,65.7,61.7,29.23,South,189,1.0,3.0,87,0.00,CLR,,0.00,WeatherDisplay:10.37,2013-10-03 12:50:00,
2013-10-03 08:00:00,65.9,62.2,29.24,South,191,0.0,3.0,88,0.00,CLR,,0.00,WeatherDisplay:10.37,2013-10-03 13:00:00,
2013-10-03 08:10:00,65.9,61.9,29.23,SSW,195,0.0,4.0,87,0.00,CLR,,0.00,WeatherDisplay:10.37,2013-10-03 13:10:00,
2013-10-03 08:20:00,66.1,62.1,29.24,SSW,193,1.0,4.0,87,0.00,CLR,,0.00,WeatherDisplay:10.37,2013-10-03 13:20:00,
2013-10-03 08:30:00,66.2,62.2,29.24,South,189,1.0,5.0,87,0.00,CLR,,0.00,WeatherDisplay:10.37,2013-10-03 13:30:00,
2013-10-03 08:40:00,66.7,63.0,29.23,South,189,1.0,2.0,88,0.00,CLR,,0.00,WeatherDisplay:10.37,2013-10-03 13:40:00,
2013-10-03 08:50:00,66.8,62.8,29.23,South,189,0.0,4.0,87,0.00,CLR,,0.00,WeatherDisplay:10.37,2013-10-03 13:50:00,
2013-10-03 09:00:00,67.0,63.3,29.24,South,189,0.0,3.0,88,0.00,CLR,,0.00,WeatherDisplay:10.37,2013-10-03 14:00:00,
2013-10-03 09:10:00,67.0,63.3,29.23,South,189,0.0,3.0,88,0.00,CLR,,0.00,WeatherDisplay:10.37,2013-10-03 14:10:00,
2013-10-03 09:20:00,67.2,63.2,29.23,NW,321,0.0,2.0,87,0.00,CLR,,0.00,WeatherDisplay:10.37,2013-10-03 14:20:00,
2013-10-03 09:30:00,67.2,63.2,29.22,NW,307,0.0,3.0,87,0.00,CLR,,0.00,WeatherDisplay:10.37,2013-10-03 14:30:00,
2013-10-03 09:40:00,67.4,63.7,29.22,WNW,296,0.0,3.0,88,0.00,CLR,,0.00,WeatherDisplay:10.37,2013-10-03 14:40:00,
2013-10-03 09:50:00,67.4,63.7,29.23,WSW,237,1.0,3.0,88,0.00,CLR,,0.00,WeatherDisplay:10.37,2013-10-03 14:50:00,
2013-10-03 10:00:00,67.4,63.7,29.23,South,177,1.0,5.0,88,0.00,CLR,,0.00,WeatherDisplay:10.37,2013-10-03 15:00:00,
2013-10-03 10:10:00,67.4,63.4,29.24,South,178,1.0,4.0,87,0.00,CLR,,0.00,WeatherDisplay:10.37,2013-10-03 15:10:00,
2013-10-03 10:20:00,67.4,63.7,29.24,South,178,0.0,3.0,88,0.00,CLR,,0.00,WeatherDisplay:10.37,2013-10-03 15:20:00,
2013-10-03 10:30:00,67.4,63.4,29.25,South,177,0.0,3.0,87,0.00,CLR,,0.00,WeatherDisplay:10.37,2013-10-03 15:30:00,
2013-10-03 10:40:00,67.4,63.7,29.24,South,177,0.0,4.0,88,0.00,CLR,,0.00,WeatherDisplay:10.37,2013-10-03 15:40:00,
2013-10-03 10:50:00,67.3,63.3,29.23,South,178,0.0,5.0,87,0.00,CLR,,0.00,WeatherDisplay:10.37,2013-10-03 15:50:00,
2013-10-03 11:00:00,67.0,63.0,29.22,South,181,0.0,4.0,87,0.00,CLR,,0.00,WeatherDisplay:10.37,2013-10-03 16:00:00,
2013-10-03 11:10:00,66.9,62.9,29.21,South,182,0.0,2.0,87,0.00,CLR,,0.00,WeatherDisplay:10.37,2013-10-03 16:10:00,
2013-10-03 11:20:00,66.9,62.9,29.23,South,182,0.0,0.0,87,0.00,CLR,,0.00,WeatherDisplay:10.37,2013-10-03 16:20:00,
2013-10-03 11:30:00,66.9,62.9,29.24,South,182,0.0,0.0,87,0.00,CLR,,0.00,WeatherDisplay:10.37,2013-10-03 16:30:00,
2013-10-03 11:40:00,67.0,63.3,29.23,South,182,0.0,0.0,88,0.00,CLR,,0.00,WeatherDisplay:10.37,2013-10-03 16:40:00,
2013-10-03 11:50:00,67.0,63.3,29.24,South,182,0.0,2.0,88,0.00,CLR,,0.00,WeatherDisplay:10.37,2013-10-03 16:50:00,
2013-10-03 12:00:00,66.9,63.2,29.23,South,182,0.0,4.0,88,0.00,CLR,,0.00,WeatherDisplay:10.37,2013-10-03 17:00:00,
2013-10-03 12:10:00,67.3,63.6,29.23,South,182,1.0,3.0,88,0.00,CLR,,0.00,WeatherDisplay:10.37,2013-10-03 17:10:00,
2013-10-03 12:20:00,67.7,64.0,29.23,South,182,0.0,2.0,88,0.00,CLR,,0.00,WeatherDisplay:10.37,2013-10-03 17:20:00,
2013-10-03 12:30:00,68.0,64.3,29.23,South,182,1.0,3.0,88,0.00,CLR,,0.00,WeatherDisplay:10.37,2013-10-03 17:30:00,
2013-10-03 12:40:00,68.3,64.6,29.23,South,182,0.0,2.0,88,0.00,CLR,,0.00,WeatherDisplay:10.37,2013-10-03 17:40:00,
2013-10-03 12:50:00,68.5,64.8,29.23,South,182,1.0,3.0,88,0.00,CLR,,0.00,WeatherDisplay:10.37,2013-10-03 17:50:00,
2013-10-03 13:00:00,68.7,64.7,29.21,South,182,1.0,3.0,87,0.00,CLR,,0.00,WeatherDisplay:10.37,2013-10-03 18:00:00,
2013-10-03 13:10:00,68.8,65.1,29.20,SSE,167,1.0,5.0,88,0.00,CLR,,0.00,WeatherDisplay:10.37,2013-10-03 18:10:00,
2013-10-03 13:20:00,69.6,65.6,29.20,SSE,160,1.0,3.0,87,0.00,CLR,,0.00,WeatherDisplay:10.37,2013-10-03 18:20:00,
2013-10-03 13:30:00,70.0,66.0,29.19,SSE,161,1.0,4.0,87,0.00,CLR,,0.00,WeatherDisplay:10.37,2013-10-03 18:30:00,
2013-10-03 13:40:00,70.5,66.4,29.18,South,177,1.0,5.0,87,0.00,CLR,,0.00,WeatherDisplay:10.37,2013-10-03 18:40:00,
2013-10-03 13:50:00,71.5,66.7,29.18,South,183,1.0,5.0,85,0.00,CLR,,0.00,WeatherDisplay:10.37,2013-10-03 18:50:00,
2013-10-03 14:00:00,72.4,66.6,29.18,South,182,0.0,4.0,82,0.00,CLR,,0.00,WeatherDisplay:10.37,2013-10-03 19:00:00,
2013-10-03 14:10:00,72.8,65.6,29.18,South,178,0.0,2.0,78,0.00,CLR,,0.00,WeatherDisplay:10.37,2013-10-03 19:10:00,
2013-10-03 14:20:00,73.3,65.6,29.18,South,181,0.0,0.0,77,0.00,CLR,,0.00,WeatherDisplay:10.37,2013-10-03 19:20:00,
2013-10-03 14:30:00,73.6,65.6,29.18,South,180,0.0,1.0,76,0.00,CLR,,0.00,WeatherDisplay:10.37,2013-10-03 19:30:00,
2013-10-03 14:40:00,73.9,65.5,29.17,South,180,0.0,0.0,75,0.00,CLR,,0.00,WeatherDisplay:10.37,2013-10-03 19:40:00,
2013-10-03 14:50:00,74.4,65.6,29.17,South,189,0.0,1.0,74,0.00,CLR,,0.00,WeatherDisplay:10.37,2013-10-03 19:50:00,
2013-10-03 15:00:00,74.8,65.2,29.17,South,185,0.0,1.0,72,0.00,CLR,,0.00,WeatherDisplay:10.37,2013-10-03 20:00:00,
2013-10-03 15:10:00,75.1,65.5,29.16,South,178,0.0,1.0,72,0.00,CLR,,0.00,WeatherDisplay:10.37,2013-10-03 20:10:00,
2013-10-03 15:20:00,75.5,65.8,29.16,South,176,0.0,2.0,72,0.00,CLR,,0.00,WeatherDisplay:10.37,2013-10-03 20:20:00,
2013-10-03 15:30:00,75.0,65.4,29.16,South,182,0.0,2.0,72,0.00,CLR,,0.00,WeatherDisplay:10.37,2013-10-03 20:30:00,
2013-10-03 15:40:00,74.8,65.6,29.16,South,182,0.0,1.0,73,0.00,CLR,,0.00,WeatherDisplay:10.37,2013-10-03 20:40:00,
2013-10-03 15:50:00,74.8,65.2,29.15,South,181,0.0,2.0,72,0.00,CLR,,0.00,WeatherDisplay:10.37,2013-10-03 20:50:00,
2013-10-03 16:00:00,74.6,65.0,29.16,South,179,0.0,1.0,72,0.00,CLR,,0.00,WeatherDisplay:10.37,2013-10-03 21:00:00,
2013-10-03 16:10:00,74.4,64.8,29.15,South,184,0.0,2.0,72,0.00,CLR,,0.00,WeatherDisplay:10.37,2013-10-03 21:10:00,
2013-10-03 16:20:00,74.3,65.1,29.15,South,186,0.0,0.0,73,0.00,CLR,,0.00,WeatherDisplay:10.37,2013-10-03 21:20:00,
2013-10-03 16:30:00,74.3,64.7,29.15,South,187,0.0,1.0,72,0.00,CLR,,0.00,WeatherDisplay:10.37,2013-10-03 21:30:00,
2013-10-03 16:40:00,74.3,65.1,29.14,South,187,0.0,1.0,73,0.00,CLR,,0.00,WeatherDisplay:10.37,2013-10-03 21:40:00,
2013-10-03 16:50:00,74.4,65.2,29.15,South,187,0.0,0.0,73,0.00,CLR,,0.00,WeatherDisplay:10.37,2013-10-03 21:50:00,
2013-10-03 17:00:00,75.0,65.4,29.15,South,187,0.0,1.0,72,0.00,CLR,,0.00,WeatherDisplay:10.37,2013-10-03 22:00:00,
2013-10-03 17:10:00,75.1,65.1,29.15,South,187,0.0,0.0,71,0.00,CLR,,0.00,WeatherDisplay:10.37,2013-10-03 22:10:00,
2013-10-03 17:20:00,75.0,65.4,29.15,South,187,0.0,0.0,72,0.00,CLR,,0.00,WeatherDisplay:10.37,2013-10-03 22:20:00,
2013-10-03 17:30:00,75.0,65.3,29.16,South,187,0.0,0.0,72,0.00,CLR,,0.00,WeatherDisplay:10.37,2013-10-03 22:30:00,
2013-10-03 17:40:00,75.0,65.3,29.15,South,187,0.0,0.0,72,0.00,CLR,,0.00,WeatherDisplay:10.37,2013-10-03 22:40:00,
2013-10-03 17:50:00,74.8,65.2,29.15,South,187,0.0,2.0,72,0.00,CLR,,0.00,WeatherDisplay:10.37,2013-10-03 22:50:00,
2013-10-03 18:00:00,74.4,65.2,29.15,South,187,0.0,0.0,73,0.00,CLR,,0.00,WeatherDisplay:10.37,2013-10-03 23:00:00,
2013-10-03 18:10:00,74.1,64.9,29.15,South,187,0.0,0.0,73,0.00,CLR,,0.00,WeatherDisplay:10.37,2013-10-03 23:10:00,
2013-10-03 18:20:00,73.8,65.0,29.15,South,187,0.0,0.0,74,0.00,CLR,,0.00,WeatherDisplay:10.37,2013-10-03 23:20:00,
2013-10-03 18:30:00,73.2,64.5,29.15,South,187,0.0,0.0,74,0.00,CLR,,0.00,WeatherDisplay:10.37,2013-10-03 23:30:00,
2013-10-03 18:40:00,72.7,63.9,29.15,South,187,0.0,0.0,74,0.00,CLR,,0.00,WeatherDisplay:10.37,2013-10-03 23:40:00,
2013-10-03 18:50:00,72.4,63.6,29.15,South,187,0.0,0.0,74,0.00,CLR,,0.00,WeatherDisplay:10.37,2013-10-03 23:50:00,
2013-10-03 19:00:00,72.0,64.0,29.16,South,187,0.0,0.0,76,0.00,CLR,,0.00,WeatherDisplay:10.37,2013-10-04 00:00:00,
2013-10-03 19:10:00,71.7,64.5,29.16,South,187,0.0,0.0,78,0.00,CLR,,0.00,WeatherDisplay:10.37,2013-10-04 00:10:00,
2013-10-03 19:20:00,71.3,63.7,29.16,SSW,199,0.0,0.0,77,0.00,CLR,,0.00,WeatherDisplay:10.37,2013-10-04 00:20:00,
2013-10-03 19:30:00,71.0,62.7,29.16,SSW,209,0.0,4.0,75,0.00,CLR,,0.00,WeatherDisplay:10.37,2013-10-04 00:30:00,
2013-10-03 19:40:00,70.8,62.1,29.16,SSW,205,0.0,5.0,74,0.00,CLR,,0.00,WeatherDisplay:10.37,2013-10-04 00:40:00,
2013-10-03 19:50:00,70.5,62.2,29.16,SSW,205,0.0,4.0,75,0.00,CLR,,0.00,WeatherDisplay:10.37,2013-10-04 00:50:00,
2013-10-03 20:00:00,70.1,61.8,29.16,SSW,205,0.0,3.0,75,0.00,CLR,,0.00,WeatherDisplay:10.37,2013-10-04 01:00:00,
2013-10-03 20:10:00,69.7,61.8,29.16,SSW,206,0.0,3.0,76,0.00,CLR,,0.00,WeatherDisplay:10.37,2013-10-04 01:10:00,
2013-10-03 20:20:00,69.5,61.6,29.16,SSW,206,0.0,0.0,76,0.00,CLR,,0.00,WeatherDisplay:10.37,2013-10-04 01:20:00,
2013-10-03 20:30:00,69.2,61.7,29.17,SSW,206,0.0,1.0,77,0.00,CLR,,0.00,WeatherDisplay:10.37,2013-10-04 01:30:00,
2013-10-03 20:40:00,69.0,61.9,29.17,SSW,206,0.0,0.0,78,0.00,CLR,,0.00,WeatherDisplay:10.37,2013-10-04 01:40:00,
2013-10-03 20:50:00,69.0,61.9,29.17,SSW,206,0.0,2.0,78,0.00,CLR,,0.00,WeatherDisplay:10.37,2013-10-04 01:50:00,
2013-10-03 21:00:00,69.0,62.2,29.18,SSW,202,1.0,4.0,79,0.00,CLR,,0.00,WeatherDisplay:10.37,2013-10-04 02:00:00,
2013-10-03 21:10:00,69.3,62.5,29.17,SSW,203,2.0,6.0,79,0.00,CLR,,0.00,WeatherDisplay:10.37,2013-10-04 02:10:00,
2013-10-03 21:20:00,69.8,63.0,29.17,South,187,2.0,7.0,79,0.00,CLR,,0.00,WeatherDisplay:10.37,2013-10-04 02:20:00,
2013-10-03 21:30:00,69.6,62.5,29.17,South,186,0.0,6.0,78,0.00,CLR,,0.00,WeatherDisplay:10.37,2013-10-04 02:30:00,
2013-10-03 21:40:00,69.5,62.7,29.18,South,181,2.0,4.0,79,0.00,CLR,,0.00,WeatherDisplay:10.37,2013-10-04 02:40:00,
2013-10-03 21:50:00,69.0,62.2,29.18,WSW,254,1.0,4.0,79,0.00,CLR,,0.00,WeatherDisplay:10.37,2013-10-04 02:50:00,
2013-10-03 22:00:00,68.7,61.9,29.18,SSW,201,1.0,5.0,79,0.00,CLR,,0.00,WeatherDisplay:10.37,2013-10-04 03:00:00,
2013-10-03 22:10:00,68.3,61.5,29.18,South,183,2.0,5.0,79,0.00,CLR,,0.00,WeatherDisplay:10.37,2013-10-04 03:10:00,
2013-10-03 22:20:00,68.2,61.5,29.19,South,188,1.0,6.0,79,0.00,CLR,,0.00,WeatherDisplay:10.37,2013-10-04 03:20:00,
2013-10-03 22:30:00,68.2,61.4,29.19,South,188,1.0,5.0,79,0.00,CLR,,0.00,WeatherDisplay:10.37,2013-10-04 03:30:00,
2013-10-03 22:40:00,68.0,61.2,29.19,South,186,1.0,7.0,79,0.00,CLR,,0.00,WeatherDisplay:10.37,2013-10-04 03:40:00,
2013-10-03 22:50:00,67.8,61.4,29.20,South,186,0.0,4.0,80,0.00,CLR,,0.00,WeatherDisplay:10.37,2013-10-04 03:50:00,
2013-10-03 23:00:00,67.7,61.7,29.20,SSW,201,1.0,4.0,81,0.00,CLR,,0.00,WeatherDisplay:10.37,2013-10-04 04:00:00,
2013-10-03 23:40:00,67.0,60.3,29.20,SSW,212,0.0,3.0,79,0.00,CLR,,0.00,WeatherDisplay:10.37,2013-10-04 04:40:00,
2013-10-03 23:50:00,66.9,60.1,29.20,SSW,212,0.0,1.0,79,0.00,CLR,,0.00,WeatherDisplay:10.37,2013-10-04 04:50:00,